This is the latest recevied weather packets stored in our database for station/object XE2RCS-1. If no packets are shown the sender has not sent any weather packets the latest 10 day(s).
| Time | Temp. | Humidity | Pressure | Rain* | Wind** | Luminosity | Snow |
|---|---|---|---|---|---|---|---|
| 1788266074 | 20.56° C | 74% | 1019 hPa | 0 mm | - | - | - |
| 1788265474 | 20.56° C | 71% | 1021 hPa | 0 mm | - | - | - |
| 1788264873 | 20.56° C | 61% | 1021 hPa | 0 mm | - | - | - |
| 1788264273 | 20.56° C | 61% | 1021 hPa | 0 mm | - | - | - |
| 1788263672 | 21.11° C | 61% | 1018 hPa | 0 mm | - | - | - |
| 1788263071 | 20.56° C | 61% | 1018 hPa | 0 mm | - | - | - |
| 1788262470 | 20.56° C | 61% | 1018 hPa | 0 mm | - | - | - |
| 1788261870 | 20.56° C | 61% | 1020 hPa | 0 mm | - | - | - |
| 1788261269 | 20.56° C | 61% | 1019 hPa | 0 mm | - | - | - |
| 1788260669 | 21.11° C | 61% | 1017 hPa | 0 mm | - | - | - |
| 1788260068 | 21.11° C | 61% | 1017 hPa | 0 mm | - | - | - |
| 1788259467 | 21.11° C | 61% | 1018 hPa | 0 mm | - | - | - |
| 1788258867 | 21.67° C | 60% | 1018 hPa | 0 mm | - | - | - |
| 1788258266 | 21.67° C | 58% | 1020 hPa | 0 mm | - | - | - |
| 1788257666 | 21.67° C | 57% | 1019 hPa | 0 mm | - | - | - |
| 1788257065 | 21.67° C | 57% | 1019 hPa | 0 mm | - | - | - |
| 1788256464 | 21.67° C | 57% | 1017 hPa | 0 mm | - | - | - |
| 1788255864 | 21.67° C | 61% | 1017 hPa | 0 mm | - | - | - |
| 1788255263 | 21.67° C | 59% | 1017 hPa | 0 mm | - | - | - |
| 1788254663 | 21.67° C | 60% | 1020 hPa | 0 mm | - | - | - |
| 1788254062 | 21.67° C | 59% | 1020 hPa | 0 mm | - | - | - |
| 1788253461 | 21.11° C | 63% | 1020 hPa | 0 mm | - | - | - |
| 1788252861 | 21.11° C | 65% | 1017 hPa | 0 mm | - | - | - |
| 1788252260 | 21.11° C | 65% | 1017 hPa | 0 mm | - | - | - |
| 1788251659 | 21.11° C | 66% | 1017 hPa | 0 mm | - | - | - |
* Rain latest hour (hover to see other rain measurements)
** Current wind speed in m/s (hover to see current wind gust speed)